Time,TemperatureF,DewpointF,PressureIn,WindDirection,WindDirectionDegrees,WindSpeedMPH,WindSpeedGustMPH,Humidity,HourlyPrecipIn,Conditions,Clouds,dailyrainin,SoftwareType,DateUTC
2013-02-05 00:00:00,42.8,35.8,30.00,ESE,103,0.0,0.0,76,0.00,,---,0.00,VWS V14.01,2013-02-05 06:00:00,
2013-02-05 00:05:00,42.9,35.9,30.00,ESE,103,0.0,0.0,76,0.00,,---,0.00,VWS V14.01,2013-02-05 06:05:00,
2013-02-05 00:10:00,42.9,35.9,30.00,ESE,103,0.0,0.0,76,0.00,,---,0.00,VWS V14.01,2013-02-05 06:10:00,
2013-02-05 00:15:00,42.8,35.8,30.00,ESE,103,0.0,0.0,76,0.00,,---,0.00,VWS V14.01,2013-02-05 06:15:00,
2013-02-05 00:20:00,42.8,35.8,30.00,ESE,103,0.0,0.0,76,0.00,,---,0.00,VWS V14.01,2013-02-05 06:20:00,
2013-02-05 00:25:00,42.8,35.8,30.00,ESE,103,0.0,0.0,76,0.00,,---,0.00,VWS V14.01,2013-02-05 06:25:00,
2013-02-05 00:30:00,42.7,35.7,30.00,ESE,103,0.0,0.0,76,0.00,,---,0.00,VWS V14.01,2013-02-05 06:30:00,
2013-02-05 00:35:00,42.7,35.7,30.00,ESE,103,0.0,0.0,76,0.00,,---,0.00,VWS V14.01,2013-02-05 06:35:00,
2013-02-05 00:40:00,42.7,35.7,30.00,ESE,103,0.0,0.0,76,0.00,,---,0.00,VWS V14.01,2013-02-05 06:40:00,
2013-02-05 00:45:00,42.6,35.6,30.00,ESE,103,0.0,0.0,76,0.00,,---,0.00,VWS V14.01,2013-02-05 06:45:00,
2013-02-05 00:50:00,42.6,35.6,30.00,ESE,103,0.0,0.0,76,0.00,,---,0.00,VWS V14.01,2013-02-05 06:50:00,
2013-02-05 00:55:00,42.5,35.8,30.00,ESE,103,0.0,0.0,77,0.00,,---,0.00,VWS V14.01,2013-02-05 06:55:00,
2013-02-05 01:00:00,42.5,35.8,30.00,ESE,103,0.0,0.0,77,0.00,,---,0.00,VWS V14.01,2013-02-05 07:00:00,
2013-02-05 01:05:00,42.5,35.8,30.00,ESE,103,0.0,0.0,77,0.00,,---,0.00,VWS V14.01,2013-02-05 07:05:00,
2013-02-05 01:10:00,42.5,35.8,30.00,ESE,103,0.0,0.0,77,0.00,,---,0.00,VWS V14.01,2013-02-05 07:10:00,
2013-02-05 01:15:00,42.5,35.8,30.00,ESE,103,0.0,0.0,77,0.00,,---,0.00,VWS V14.01,2013-02-05 07:15:00,
2013-02-05 01:20:00,42.5,35.8,30.00,ESE,103,0.0,0.0,77,0.00,,---,0.00,VWS V14.01,2013-02-05 07:20:00,
2013-02-05 01:25:00,42.5,35.8,30.00,ESE,103,0.0,0.0,77,0.00,,---,0.00,VWS V14.01,2013-02-05 07:25:00,
2013-02-05 01:30:00,42.6,35.9,30.00,ESE,103,0.0,0.0,77,0.00,,---,0.00,VWS V14.01,2013-02-05 07:30:00,
2013-02-05 01:35:00,42.7,36.3,30.00,ESE,103,0.0,0.0,78,0.00,,---,0.00,VWS V14.01,2013-02-05 07:35:00,
2013-02-05 01:40:00,42.7,36.3,30.00,ESE,103,0.0,0.0,78,0.00,,---,0.00,VWS V14.01,2013-02-05 07:40:00,
2013-02-05 01:45:00,42.8,36.4,29.99,ESE,103,0.0,0.0,78,0.00,,---,0.00,VWS V14.01,2013-02-05 07:45:00,
2013-02-05 01:50:00,42.8,36.4,29.99,ESE,103,0.0,0.0,78,0.00,,---,0.00,VWS V14.01,2013-02-05 07:50:00,
2013-02-05 01:55:00,42.9,36.5,29.99,ESE,103,0.0,0.0,78,0.00,,---,0.00,VWS V14.01,2013-02-05 07:55:00,
2013-02-05 02:00:00,42.9,36.5,29.99,ESE,103,0.0,0.0,78,0.00,,---,0.00,VWS V14.01,2013-02-05 08:00:00,
2013-02-05 05:30:00,44.9,38.5,30.00,North,0,0.0,3.0,78,0.00,,---,0.00,VWS V14.01,2013-02-05 11:30:00,
2013-02-05 06:18:00,44.9,38.5,30.00,North,0,0.0,3.0,78,0.00,,---,0.00,VWS V14.01,2013-02-05 12:18:00,
2013-02-05 06:23:00,45.4,39.0,30.01,NNW,331,0.0,0.0,78,0.00,,---,0.00,VWS V14.01,2013-02-05 12:23:00,
2013-02-05 06:28:00,45.4,39.0,30.00,NNW,331,0.0,0.0,78,0.00,,---,0.00,VWS V14.01,2013-02-05 12:28:00,
2013-02-05 06:33:00,45.4,39.0,30.01,NNW,331,0.0,0.0,78,0.00,,---,0.00,VWS V14.01,2013-02-05 12:33:00,
2013-02-05 06:38:00,45.5,39.0,30.01,NNW,331,0.0,0.0,78,0.00,,---,0.00,VWS V14.01,2013-02-05 12:38:00,
2013-02-05 06:43:00,45.5,39.0,30.01,NNW,331,0.0,0.0,78,0.00,,---,0.00,VWS V14.01,2013-02-05 12:43:00,
2013-02-05 06:48:00,45.6,39.2,30.01,NNW,331,0.0,0.0,78,0.00,,---,0.00,VWS V14.01,2013-02-05 12:48:00,
2013-02-05 06:53:00,45.6,39.2,30.02,NNW,331,0.0,0.0,78,0.00,,---,0.00,VWS V14.01,2013-02-05 12:53:00,
2013-02-05 06:58:00,45.6,39.2,30.02,NNW,331,0.0,0.0,78,0.00,,---,0.00,VWS V14.01,2013-02-05 12:58:00,
2013-02-05 07:03:00,45.7,39.2,30.02,NNW,331,0.0,0.0,78,0.00,,---,0.00,VWS V14.01,2013-02-05 13:03:00,
2013-02-05 07:08:00,45.8,39.3,30.02,NNW,331,0.0,0.0,78,0.00,,---,0.00,VWS V14.01,2013-02-05 13:08:00,
2013-02-05 07:13:00,45.8,39.3,30.02,NNW,331,0.0,0.0,78,0.00,,---,0.00,VWS V14.01,2013-02-05 13:13:00,
2013-02-05 07:18:00,45.9,39.4,30.02,NNW,331,0.0,0.0,78,0.00,,---,0.00,VWS V14.01,2013-02-05 13:18:00,
2013-02-05 07:23:00,46.0,39.5,30.03,NNW,331,0.0,0.0,78,0.00,,---,0.00,VWS V14.01,2013-02-05 13:23:00,
2013-02-05 07:28:00,46.0,39.5,30.03,NNW,331,0.0,0.0,78,0.00,,---,0.00,VWS V14.01,2013-02-05 13:28:00,
2013-02-05 07:33:00,46.1,39.6,30.03,NNW,331,0.0,0.0,78,0.00,,---,0.00,VWS V14.01,2013-02-05 13:33:00,
2013-02-05 07:38:00,46.1,39.6,30.03,NNW,331,0.0,0.0,78,0.00,,---,0.00,VWS V14.01,2013-02-05 13:38:00,
2013-02-05 07:43:00,46.2,39.7,30.03,NNW,331,0.0,0.0,78,0.00,,---,0.00,VWS V14.01,2013-02-05 13:43:00,
2013-02-05 07:48:00,46.3,39.8,30.04,NNW,331,0.0,0.0,78,0.00,,---,0.00,VWS V14.01,2013-02-05 13:48:00,
2013-02-05 07:53:00,46.3,39.8,30.04,NNW,331,0.0,0.0,78,0.00,,---,0.00,VWS V14.01,2013-02-05 13:53:00,
2013-02-05 07:58:00,46.5,40.0,30.04,NNW,331,0.0,0.0,78,0.00,,---,0.00,VWS V14.01,2013-02-05 13:58:00,
2013-02-05 08:03:00,46.6,40.1,30.04,NNW,331,0.0,0.0,78,0.00,,---,0.00,VWS V14.01,2013-02-05 14:03:00,
2013-02-05 08:08:00,46.7,40.5,30.04,NNW,331,0.0,0.0,79,0.00,,---,0.00,VWS V14.01,2013-02-05 14:08:00,
2013-02-05 08:13:00,46.9,40.7,30.04,NNW,331,0.0,0.0,79,0.00,,---,0.00,VWS V14.01,2013-02-05 14:13:00,
2013-02-05 08:18:00,47.0,40.8,30.04,NNW,331,0.0,0.0,79,0.00,,---,0.00,VWS V14.01,2013-02-05 14:18:00,
2013-02-05 08:23:00,47.2,41.4,30.04,NNW,331,0.0,0.0,80,0.00,,---,0.00,VWS V14.01,2013-02-05 14:23:00,
2013-02-05 08:28:00,47.4,41.5,30.04,NNW,331,0.0,0.0,80,0.00,,---,0.00,VWS V14.01,2013-02-05 14:28:00,
2013-02-05 08:33:00,47.6,41.8,30.04,NNW,331,0.0,0.0,80,0.00,,---,0.00,VWS V14.01,2013-02-05 14:33:00,
2013-02-05 08:38:00,47.7,41.8,30.05,NNW,331,0.0,0.0,80,0.00,,---,0.00,VWS V14.01,2013-02-05 14:38:00,
2013-02-05 08:43:00,47.9,42.0,30.05,NNW,331,0.0,0.0,80,0.00,,---,0.00,VWS V14.01,2013-02-05 14:43:00,
2013-02-05 08:48:00,48.1,42.2,30.05,NNW,331,0.0,0.0,80,0.00,,---,0.00,VWS V14.01,2013-02-05 14:48:00,
2013-02-05 08:53:00,48.2,42.3,30.06,NNW,331,0.0,0.0,80,0.00,,---,0.00,VWS V14.01,2013-02-05 14:53:00,
2013-02-05 08:58:00,48.4,42.5,30.05,NNW,331,0.0,0.0,80,0.00,,---,0.00,VWS V14.01,2013-02-05 14:58:00,
2013-02-05 09:03:00,48.6,42.7,30.05,NNW,331,0.0,0.0,80,0.00,,---,0.00,VWS V14.01,2013-02-05 15:03:00,
2013-02-05 09:08:00,48.8,42.9,30.06,NNW,331,0.0,0.0,80,0.00,,---,0.00,VWS V14.01,2013-02-05 15:08:00,
2013-02-05 09:13:00,49.0,43.1,30.06,NNW,331,0.0,0.0,80,0.00,,---,0.00,VWS V14.01,2013-02-05 15:13:00,
2013-02-05 09:18:00,49.2,43.0,30.06,NNW,331,0.0,0.0,79,0.00,,---,0.00,VWS V14.01,2013-02-05 15:18:00,
2013-02-05 09:23:00,49.4,43.2,30.05,NNW,331,0.0,0.0,79,0.00,,---,0.00,VWS V14.01,2013-02-05 15:23:00,
2013-02-05 09:28:00,49.7,43.5,30.06,NNW,331,0.0,0.0,79,0.00,,---,0.00,VWS V14.01,2013-02-05 15:28:00,
2013-02-05 09:33:00,50.0,43.8,30.06,WNW,294,0.0,0.0,79,0.00,,---,0.00,VWS V14.01,2013-02-05 15:33:00,
2013-02-05 09:37:00,50.3,44.0,30.06,WNW,283,2.0,4.0,79,0.00,,---,0.00,VWS V14.01,2013-02-05 15:37:00,
2013-02-05 09:42:00,50.6,44.3,30.06,WNW,283,0.0,4.0,79,0.00,,---,0.00,VWS V14.01,2013-02-05 15:42:00,
2013-02-05 09:47:00,50.8,44.2,30.07,WNW,283,0.0,4.0,78,0.00,,---,0.00,VWS V14.01,2013-02-05 15:47:00,
2013-02-05 09:52:00,51.0,44.4,30.07,WNW,283,0.0,4.0,78,0.00,,---,0.00,VWS V14.01,2013-02-05 15:52:00,
2013-02-05 09:57:00,51.3,44.3,30.07,WNW,283,0.0,4.0,77,0.00,,---,0.00,VWS V14.01,2013-02-05 15:57:00,
2013-02-05 10:02:00,51.5,44.5,30.06,WNW,283,0.0,0.0,77,0.00,,---,0.00,VWS V14.01,2013-02-05 16:02:00,
2013-02-05 10:07:00,51.7,44.7,30.06,WNW,283,0.0,0.0,77,0.00,,---,0.00,VWS V14.01,2013-02-05 16:07:00,
2013-02-05 10:12:00,51.9,44.9,30.06,WNW,283,0.0,0.0,77,0.00,,---,0.00,VWS V14.01,2013-02-05 16:12:00,
2013-02-05 10:17:00,52.1,45.1,30.07,WNW,283,0.0,0.0,77,0.00,,---,0.00,VWS V14.01,2013-02-05 16:17:00,
2013-02-05 10:22:00,52.2,44.9,30.06,West,260,0.0,0.0,76,0.00,,---,0.00,VWS V14.01,2013-02-05 16:22:00,
2013-02-05 10:27:00,52.5,45.2,30.06,WSW,240,0.0,2.0,76,0.00,,---,0.00,VWS V14.01,2013-02-05 16:27:00,
2013-02-05 10:32:00,52.6,44.9,30.06,SW,228,3.0,3.0,75,0.00,,---,0.00,VWS V14.01,2013-02-05 16:32:00,
2013-02-05 10:37:00,52.8,45.1,30.06,WSW,247,1.0,5.0,75,0.00,,---,0.00,VWS V14.01,2013-02-05 16:37:00,
2013-02-05 10:42:00,53.0,45.0,30.06,SSW,195,0.0,5.0,74,0.00,,---,0.00,VWS V14.01,2013-02-05 16:42:00,
2013-02-05 10:47:00,53.2,45.1,30.06,SSW,195,0.0,5.0,74,0.00,,---,0.00,VWS V14.01,2013-02-05 16:47:00,
2013-02-05 10:53:00,53.3,45.6,30.06,SSW,200,0.0,5.0,75,0.00,,---,0.00,VWS V14.01,2013-02-05 16:53:00,
2013-02-05 10:57:00,53.5,46.1,30.07,West,267,0.0,5.0,76,0.00,,---,0.00,VWS V14.01,2013-02-05 16:57:00,
2013-02-05 11:02:00,53.6,46.2,30.06,WSW,246,0.0,0.0,76,0.00,,---,0.00,VWS V14.01,2013-02-05 17:02:00,
2013-02-05 11:07:00,53.7,46.7,30.06,WSW,247,0.0,1.0,77,0.01,,---,0.01,VWS V14.01,2013-02-05 17:07:00,
2013-02-05 11:12:00,53.8,47.1,30.06,WSW,247,0.0,1.0,78,0.01,,---,0.01,VWS V14.01,2013-02-05 17:12:00,
2013-02-05 11:17:00,53.8,47.1,30.06,WSW,247,0.0,1.0,78,0.01,,---,0.01,VWS V14.01,2013-02-05 17:17:00,
2013-02-05 11:22:00,53.8,47.1,30.06,WSW,247,0.0,1.0,78,0.01,,---,0.01,VWS V14.01,2013-02-05 17:22:00,
2013-02-05 11:27:00,53.9,47.2,30.06,WNW,300,0.0,1.0,78,0.01,,---,0.01,VWS V14.01,2013-02-05 17:27:00,
2013-02-05 11:32:00,53.9,47.2,30.06,West,273,0.0,0.0,78,0.01,,---,0.01,VWS V14.01,2013-02-05 17:32:00,
2013-02-05 11:37:00,53.7,47.0,30.06,West,273,0.0,0.0,78,0.01,,---,0.01,VWS V14.01,2013-02-05 17:37:00,
2013-02-05 11:42:00,53.7,47.0,30.06,West,273,0.0,0.0,78,0.01,,---,0.01,VWS V14.01,2013-02-05 17:42:00,
2013-02-05 11:47:00,53.6,46.9,30.05,West,273,0.0,0.0,78,0.01,,---,0.01,VWS V14.01,2013-02-05 17:47:00,
2013-02-05 11:52:00,53.6,47.3,30.05,West,273,0.0,0.0,79,0.01,,---,0.01,VWS V14.01,2013-02-05 17:52:00,
2013-02-05 11:57:00,53.5,47.2,30.05,NNW,340,0.0,4.0,79,0.01,,---,0.01,VWS V14.01,2013-02-05 17:57:00,
2013-02-05 12:02:00,53.5,47.2,30.05,NNW,335,0.0,0.0,79,0.01,,---,0.01,VWS V14.01,2013-02-05 18:02:00,
2013-02-05 12:07:00,53.5,47.5,30.04,NNW,335,0.0,0.0,80,0.01,,---,0.01,VWS V14.01,2013-02-05 18:07:00,
2013-02-05 12:12:00,53.5,47.5,30.04,NNW,336,0.0,0.0,80,0.01,,---,0.01,VWS V14.01,2013-02-05 18:12:00,
2013-02-05 12:17:00,53.5,47.5,30.04,NNW,336,0.0,0.0,80,0.01,,---,0.01,VWS V14.01,2013-02-05 18:17:00,
2013-02-05 12:22:00,53.4,47.4,30.04,NNW,336,0.0,0.0,80,0.01,,---,0.01,VWS V14.01,2013-02-05 18:22:00,
2013-02-05 12:27:00,53.4,47.4,30.04,NW,325,0.0,0.0,80,0.01,,---,0.01,VWS V14.01,2013-02-05 18:27:00,
2013-02-05 12:32:00,53.3,47.3,30.03,NW,325,0.0,0.0,80,0.00,,---,0.01,VWS V14.01,2013-02-05 18:32:00,
2013-02-05 12:37:00,53.3,47.3,30.03,NW,325,0.0,0.0,80,0.00,,---,0.01,VWS V14.01,2013-02-05 18:37:00,
2013-02-05 12:42:00,53.2,47.2,30.03,NW,325,0.0,0.0,80,0.00,,---,0.01,VWS V14.01,2013-02-05 18:42:00,
2013-02-05 12:47:00,53.2,47.2,30.03,NW,325,0.0,0.0,80,0.00,,---,0.01,VWS V14.01,2013-02-05 18:47:00,
2013-02-05 12:52:00,53.1,47.1,30.03,NW,325,0.0,0.0,80,0.00,,---,0.01,VWS V14.01,2013-02-05 18:52:00,
2013-02-05 12:57:00,53.1,47.1,30.02,NW,325,0.0,0.0,80,0.00,,---,0.01,VWS V14.01,2013-02-05 18:57:00,
2013-02-05 13:02:00,53.1,47.1,30.02,NW,325,0.0,0.0,80,0.00,,---,0.01,VWS V14.01,2013-02-05 19:02:00,
2013-02-05 13:07:00,53.1,47.4,30.02,NW,325,0.0,0.0,81,0.00,,---,0.01,VWS V14.01,2013-02-05 19:07:00,
2013-02-05 13:12:00,53.2,47.5,30.02,NW,325,0.0,0.0,81,0.00,,---,0.01,VWS V14.01,2013-02-05 19:12:00,
2013-02-05 13:17:00,53.2,47.5,30.02,NW,321,0.0,0.0,81,0.00,,---,0.01,VWS V14.01,2013-02-05 19:17:00,
2013-02-05 13:22:00,53.3,47.6,30.02,NW,321,0.0,0.0,81,0.00,,---,0.01,VWS V14.01,2013-02-05 19:22:00,
2013-02-05 13:27:00,53.3,47.6,30.02,NW,321,0.0,0.0,81,0.00,,---,0.01,VWS V14.01,2013-02-05 19:27:00,
2013-02-05 13:32:00,53.4,48.0,30.02,West,271,0.0,0.0,82,0.00,,---,0.01,VWS V14.01,2013-02-05 19:32:00,
2013-02-05 13:37:00,53.4,48.0,30.02,West,271,0.0,0.0,82,0.00,,---,0.01,VWS V14.01,2013-02-05 19:37:00,
2013-02-05 13:42:00,53.5,48.2,30.02,West,267,0.0,0.0,82,0.00,,---,0.01,VWS V14.01,2013-02-05 19:42:00,
2013-02-05 13:47:00,53.6,48.2,30.02,South,176,0.0,3.0,82,0.00,,---,0.01,VWS V14.01,2013-02-05 19:47:00,
2013-02-05 13:52:00,53.6,48.2,30.02,South,176,0.0,3.0,82,0.00,,---,0.01,VWS V14.01,2013-02-05 19:52:00,
2013-02-05 13:57:00,53.7,48.3,30.02,South,176,0.0,3.0,82,0.00,,---,0.01,VWS V14.01,2013-02-05 19:57:00,
2013-02-05 14:02:00,53.8,48.4,30.02,West,265,0.0,3.0,82,0.00,,---,0.01,VWS V14.01,2013-02-05 20:02:00,
2013-02-05 14:07:00,53.8,48.4,30.01,West,263,0.0,3.0,82,0.00,,---,0.01,VWS V14.01,2013-02-05 20:07:00,
2013-02-05 14:12:00,53.9,48.5,30.01,West,263,0.0,3.0,82,0.00,,---,0.01,VWS V14.01,2013-02-05 20:12:00,
2013-02-05 14:17:00,53.9,48.5,30.01,WSW,237,0.0,3.0,82,0.01,,---,0.02,VWS V14.01,2013-02-05 20:17:00,
2013-02-05 14:22:00,54.0,48.6,30.01,SW,226,0.0,3.0,82,0.02,,---,0.03,VWS V14.01,2013-02-05 20:22:00,
2013-02-05 14:27:00,54.1,49.1,30.00,SW,226,0.0,3.0,83,0.02,,---,0.03,VWS V14.01,2013-02-05 20:27:00,
2013-02-05 14:32:00,54.1,49.1,30.00,SW,218,0.0,0.0,83,0.03,,---,0.04,VWS V14.01,2013-02-05 20:32:00,
2013-02-05 14:37:00,54.2,49.2,30.01,SW,218,0.0,0.0,83,0.03,,---,0.04,VWS V14.01,2013-02-05 20:37:00,
2013-02-05 14:42:00,54.2,49.2,30.00,SW,218,0.0,0.0,83,0.03,,---,0.04,VWS V14.01,2013-02-05 20:42:00,
2013-02-05 14:47:00,54.3,49.3,30.01,West,259,0.0,0.0,83,0.03,,---,0.04,VWS V14.01,2013-02-05 20:47:00,
2013-02-05 14:52:00,54.4,49.3,30.01,SSW,192,0.0,1.0,83,0.03,,---,0.04,VWS V14.01,2013-02-05 20:52:00,
2013-02-05 14:57:00,54.4,49.3,30.00,SSW,192,0.0,1.0,83,0.03,,---,0.04,VWS V14.01,2013-02-05 20:57:00,
2013-02-05 15:02:00,54.5,49.8,30.00,SSW,192,0.0,0.0,84,0.03,,---,0.04,VWS V14.01,2013-02-05 21:02:00,
2013-02-05 15:07:00,54.5,49.8,30.01,SSW,192,0.0,0.0,84,0.03,,---,0.04,VWS V14.01,2013-02-05 21:07:00,
2013-02-05 15:12:00,54.6,49.9,30.01,SSW,192,0.0,0.0,84,0.03,,---,0.04,VWS V14.01,2013-02-05 21:12:00,
2013-02-05 15:17:00,54.6,49.9,30.00,SSW,192,0.0,0.0,84,0.03,,---,0.04,VWS V14.01,2013-02-05 21:17:00,
2013-02-05 15:22:00,54.6,49.9,30.00,SSW,192,0.0,0.0,84,0.03,,---,0.04,VWS V14.01,2013-02-05 21:22:00,
2013-02-05 15:27:00,54.7,50.0,30.00,SSW,192,0.0,0.0,84,0.03,,---,0.04,VWS V14.01,2013-02-05 21:27:00,
2013-02-05 15:32:00,54.7,50.0,30.00,SSW,192,0.0,0.0,84,0.00,,---,0.04,VWS V14.01,2013-02-05 21:32:00,
2013-02-05 15:37:00,54.8,50.4,30.00,SSW,192,0.0,0.0,85,0.00,,---,0.04,VWS V14.01,2013-02-05 21:37:00,
2013-02-05 15:42:00,55.1,50.7,30.00,SSW,192,0.0,0.0,85,0.00,,---,0.04,VWS V14.01,2013-02-05 21:42:00,
2013-02-05 15:47:00,55.0,50.6,30.00,SSW,192,0.0,0.0,85,0.00,,---,0.04,VWS V14.01,2013-02-05 21:47:00,
2013-02-05 15:52:00,55.1,51.0,30.00,SSW,192,0.0,0.0,86,0.00,,---,0.04,VWS V14.01,2013-02-05 21:52:00,
2013-02-05 15:57:00,55.3,51.2,30.00,SSW,192,0.0,0.0,86,0.00,,---,0.04,VWS V14.01,2013-02-05 21:57:00,
2013-02-05 16:02:00,55.3,51.2,30.01,SSW,192,0.0,0.0,86,0.00,,---,0.04,VWS V14.01,2013-02-05 22:02:00,
2013-02-05 16:07:00,55.4,51.3,30.01,SSW,192,0.0,0.0,86,0.00,,---,0.04,VWS V14.01,2013-02-05 22:07:00,
2013-02-05 16:12:00,55.4,51.3,30.00,SSW,192,0.0,0.0,86,0.00,,---,0.04,VWS V14.01,2013-02-05 22:12:00,
2013-02-05 16:17:00,55.4,51.3,30.00,SSW,192,0.0,0.0,86,0.00,,---,0.04,VWS V14.01,2013-02-05 22:17:00,
2013-02-05 16:22:00,55.5,51.4,30.00,SSW,192,0.0,0.0,86,0.00,,---,0.04,VWS V14.01,2013-02-05 22:22:00,
2013-02-05 16:27:00,55.5,51.4,30.00,SSW,192,0.0,0.0,86,0.00,,---,0.04,VWS V14.01,2013-02-05 22:27:00,
2013-02-05 16:32:00,55.4,51.3,30.00,SSW,192,0.0,0.0,86,0.00,,---,0.04,VWS V14.01,2013-02-05 22:32:00,
2013-02-05 16:37:00,55.4,51.3,30.00,SSW,192,0.0,0.0,86,0.00,,---,0.04,VWS V14.01,2013-02-05 22:37:00,
2013-02-05 16:42:00,55.4,51.3,30.00,SSW,192,0.0,0.0,86,0.00,,---,0.04,VWS V14.01,2013-02-05 22:42:00,
2013-02-05 16:47:00,55.3,51.2,30.00,SSW,192,0.0,0.0,86,0.00,,---,0.04,VWS V14.01,2013-02-05 22:47:00,
2013-02-05 16:52:00,55.3,51.2,30.00,SSW,192,0.0,0.0,86,0.00,,---,0.04,VWS V14.01,2013-02-05 22:52:00,
2013-02-05 16:57:00,55.3,50.9,30.00,SSW,192,0.0,0.0,85,0.00,,---,0.04,VWS V14.01,2013-02-05 22:57:00,
2013-02-05 17:02:00,55.2,50.8,30.00,SSW,192,0.0,0.0,85,0.00,,---,0.04,VWS V14.01,2013-02-05 23:02:00,
2013-02-05 17:07:00,55.0,50.6,29.99,SSW,192,0.0,0.0,85,0.00,,---,0.04,VWS V14.01,2013-02-05 23:07:00,
2013-02-05 17:12:00,54.9,50.5,30.00,SSW,192,0.0,0.0,85,0.00,,---,0.04,VWS V14.01,2013-02-05 23:12:00,
2013-02-05 17:17:00,54.7,50.3,30.00,SSW,196,0.0,0.0,85,0.00,,---,0.04,VWS V14.01,2013-02-05 23:17:00,
2013-02-05 17:22:00,54.6,50.2,30.00,SSW,196,0.0,0.0,85,0.00,,---,0.04,VWS V14.01,2013-02-05 23:22:00,
2013-02-05 17:27:00,54.4,49.7,30.00,SSW,196,0.0,0.0,84,0.00,,---,0.04,VWS V14.01,2013-02-05 23:27:00,
2013-02-05 17:32:00,54.2,49.5,30.00,SSW,196,0.0,0.0,84,0.00,,---,0.04,VWS V14.01,2013-02-05 23:32:00,
2013-02-05 17:37:00,53.9,49.2,30.00,SSW,196,0.0,0.0,84,0.00,,---,0.04,VWS V14.01,2013-02-05 23:37:00,
2013-02-05 17:42:00,53.7,49.0,29.99,SSW,196,0.0,0.0,84,0.00,,---,0.04,VWS V14.01,2013-02-05 23:42:00,
2013-02-05 17:47:00,53.5,48.8,29.99,SSW,196,0.0,0.0,84,0.00,,---,0.04,VWS V14.01,2013-02-05 23:47:00,
2013-02-05 17:52:00,53.3,48.6,30.00,SSW,196,0.0,0.0,84,0.00,,---,0.04,VWS V14.01,2013-02-05 23:52:00,
2013-02-05 17:57:00,53.1,48.4,30.00,SSW,196,0.0,0.0,84,0.00,,---,0.04,VWS V14.01,2013-02-05 23:57:00,
2013-02-05 18:02:00,52.9,48.2,30.00,SSW,196,0.0,0.0,84,0.00,,---,0.04,VWS V14.01,2013-02-06 00:02:00,
2013-02-05 18:07:00,52.8,48.1,30.00,SSW,196,0.0,0.0,84,0.00,,---,0.04,VWS V14.01,2013-02-06 00:07:00,
2013-02-05 18:12:00,52.6,47.9,30.01,SSW,196,0.0,0.0,84,0.00,,---,0.04,VWS V14.01,2013-02-06 00:12:00,
2013-02-05 18:17:00,52.5,47.8,30.01,SSW,196,0.0,0.0,84,0.00,,---,0.04,VWS V14.01,2013-02-06 00:17:00,
2013-02-05 18:22:00,52.3,47.6,30.01,SSW,196,0.0,0.0,84,0.00,,---,0.04,VWS V14.01,2013-02-06 00:22:00,
2013-02-05 18:27:00,52.2,47.5,30.02,WSW,239,0.0,0.0,84,0.00,,---,0.04,VWS V14.01,2013-02-06 00:27:00,
2013-02-05 18:32:00,52.0,47.3,30.02,WSW,239,0.0,0.0,84,0.00,,---,0.04,VWS V14.01,2013-02-06 00:32:00,
2013-02-05 18:37:00,51.9,47.2,30.02,WSW,239,0.0,0.0,84,0.00,,---,0.04,VWS V14.01,2013-02-06 00:37:00,
2013-02-05 18:42:00,51.8,47.1,30.02,WSW,239,0.0,0.0,84,0.00,,---,0.04,VWS V14.01,2013-02-06 00:42:00,
2013-02-05 18:47:00,51.7,47.0,30.02,WSW,239,0.0,0.0,84,0.00,,---,0.04,VWS V14.01,2013-02-06 00:47:00,
2013-02-05 18:52:00,51.7,47.0,30.02,WSW,239,0.0,0.0,84,0.00,,---,0.04,VWS V14.01,2013-02-06 00:52:00,
2013-02-05 18:57:00,51.6,46.9,30.02,WSW,239,0.0,0.0,84,0.00,,---,0.04,VWS V14.01,2013-02-06 00:57:00,
2013-02-05 19:02:00,51.5,46.8,30.02,WSW,239,0.0,0.0,84,0.00,,---,0.04,VWS V14.01,2013-02-06 01:02:00,
2013-02-05 19:07:00,51.5,46.8,30.03,WSW,239,0.0,0.0,84,0.00,,---,0.04,VWS V14.01,2013-02-06 01:07:00,
2013-02-05 19:12:00,51.5,46.8,30.03,WSW,239,0.0,0.0,84,0.00,,---,0.04,VWS V14.01,2013-02-06 01:12:00,
2013-02-05 19:17:00,51.5,46.8,30.04,WSW,239,0.0,0.0,84,0.00,,---,0.04,VWS V14.01,2013-02-06 01:17:00,
2013-02-05 19:22:00,51.4,47.0,30.04,WSW,239,0.0,0.0,85,0.00,,---,0.04,VWS V14.01,2013-02-06 01:22:00,
2013-02-05 19:27:00,51.3,47.0,30.04,WSW,239,0.0,0.0,85,0.00,,---,0.04,VWS V14.01,2013-02-06 01:27:00,
2013-02-05 19:32:00,51.2,46.8,30.04,WSW,239,0.0,0.0,85,0.00,,---,0.04,VWS V14.01,2013-02-06 01:32:00,
2013-02-05 19:37:00,51.1,46.8,30.04,WSW,239,0.0,0.0,85,0.00,,---,0.04,VWS V14.01,2013-02-06 01:37:00,
2013-02-05 19:42:00,51.0,46.3,30.04,WSW,239,0.0,0.0,84,0.00,,---,0.04,VWS V14.01,2013-02-06 01:42:00,
2013-02-05 19:47:00,51.0,46.7,30.05,WSW,239,0.0,0.0,85,0.00,,---,0.04,VWS V14.01,2013-02-06 01:47:00,
2013-02-05 19:52:00,51.0,46.7,30.05,WSW,239,0.0,0.0,85,0.00,,---,0.04,VWS V14.01,2013-02-06 01:52:00,
2013-02-05 19:57:00,50.9,46.6,30.05,WSW,239,0.0,0.0,85,0.00,,---,0.04,VWS V14.01,2013-02-06 01:57:00,
2013-02-05 20:02:00,50.9,46.6,30.05,WSW,239,0.0,0.0,85,0.00,,---,0.04,VWS V14.01,2013-02-06 02:02:00,
2013-02-05 20:07:00,50.9,46.6,30.05,WSW,239,0.0,0.0,85,0.00,,---,0.04,VWS V14.01,2013-02-06 02:07:00,
2013-02-05 20:12:00,50.9,46.6,30.05,WSW,239,0.0,0.0,85,0.00,,---,0.04,VWS V14.01,2013-02-06 02:12:00,
2013-02-05 20:17:00,51.0,46.7,30.06,WSW,239,0.0,0.0,85,0.00,,---,0.04,VWS V14.01,2013-02-06 02:17:00,
2013-02-05 20:22:00,51.0,47.0,30.05,WSW,239,0.0,0.0,86,0.00,,---,0.04,VWS V14.01,2013-02-06 02:22:00,
2013-02-05 20:27:00,51.1,47.1,30.06,WSW,239,0.0,0.0,86,0.00,,---,0.04,VWS V14.01,2013-02-06 02:27:00,
2013-02-05 20:32:00,51.2,47.2,30.06,WSW,239,0.0,0.0,86,0.00,,---,0.04,VWS V14.01,2013-02-06 02:32:00,
2013-02-05 20:37:00,51.3,47.3,30.06,WSW,239,0.0,0.0,86,0.00,,---,0.04,VWS V14.01,2013-02-06 02:37:00,
2013-02-05 20:42:00,51.3,47.3,30.06,WSW,239,0.0,0.0,86,0.00,,---,0.04,VWS V14.01,2013-02-06 02:42:00,
2013-02-05 20:47:00,51.4,47.4,30.06,WSW,239,0.0,0.0,86,0.00,,---,0.04,VWS V14.01,2013-02-06 02:47:00,
2013-02-05 20:52:00,51.5,47.5,30.06,WSW,239,0.0,0.0,86,0.00,,---,0.04,VWS V14.01,2013-02-06 02:52:00,
2013-02-05 20:57:00,51.5,47.5,30.06,WSW,239,0.0,0.0,86,0.00,,---,0.04,VWS V14.01,2013-02-06 02:57:00,
2013-02-05 21:02:00,51.7,47.7,30.06,WSW,239,0.0,0.0,86,0.00,,---,0.04,VWS V14.01,2013-02-06 03:02:00,
2013-02-05 21:07:00,51.8,47.8,30.06,WSW,239,0.0,0.0,86,0.00,,---,0.04,VWS V14.01,2013-02-06 03:07:00,
2013-02-05 21:12:00,51.8,48.1,30.06,WSW,239,0.0,0.0,87,0.00,,---,0.04,VWS V14.01,2013-02-06 03:12:00,
2013-02-05 21:17:00,51.8,48.1,30.06,WSW,239,0.0,0.0,87,0.00,,---,0.04,VWS V14.01,2013-02-06 03:17:00,
2013-02-05 21:22:00,51.9,48.2,30.06,WSW,239,0.0,0.0,87,0.00,,---,0.04,VWS V14.01,2013-02-06 03:22:00,
2013-02-05 21:27:00,51.9,48.2,30.06,WSW,239,0.0,0.0,87,0.00,,---,0.04,VWS V14.01,2013-02-06 03:27:00,
2013-02-05 21:32:00,52.0,48.3,30.06,WSW,239,0.0,0.0,87,0.00,,---,0.04,VWS V14.01,2013-02-06 03:32:00,
2013-02-05 21:37:00,52.0,48.3,30.06,WSW,239,0.0,0.0,87,0.00,,---,0.04,VWS V14.01,2013-02-06 03:37:00,
2013-02-05 21:42:00,52.0,48.3,30.06,WSW,239,0.0,0.0,87,0.00,,---,0.04,VWS V14.01,2013-02-06 03:42:00,
2013-02-05 21:47:00,52.0,48.3,30.06,WSW,239,0.0,0.0,87,0.00,,---,0.04,VWS V14.01,2013-02-06 03:47:00,
2013-02-05 21:52:00,52.0,48.3,30.06,WSW,239,0.0,0.0,87,0.00,,---,0.04,VWS V14.01,2013-02-06 03:52:00,
2013-02-05 21:57:00,52.0,48.3,30.06,WSW,239,0.0,0.0,87,0.00,,---,0.04,VWS V14.01,2013-02-06 03:57:00,
2013-02-05 22:02:00,52.0,48.3,30.07,WSW,239,0.0,0.0,87,0.00,,---,0.04,VWS V14.01,2013-02-06 04:02:00,
2013-02-05 22:07:00,52.1,48.4,30.07,WSW,239,0.0,0.0,87,0.00,,---,0.04,VWS V14.01,2013-02-06 04:07:00,
2013-02-05 22:12:00,52.1,48.4,30.07,WSW,239,0.0,0.0,87,0.00,,---,0.04,VWS V14.01,2013-02-06 04:12:00,
2013-02-05 22:17:00,52.1,48.4,30.06,WSW,238,0.0,2.0,87,0.00,,---,0.04,VWS V14.01,2013-02-06 04:17:00,
2013-02-05 22:22:00,52.1,48.4,30.06,WSW,238,0.0,2.0,87,0.00,,---,0.04,VWS V14.01,2013-02-06 04:22:00,
2013-02-05 22:27:00,52.1,48.4,30.07,WSW,238,0.0,2.0,87,0.00,,---,0.04,VWS V14.01,2013-02-06 04:27:00,
2013-02-05 22:32:00,52.0,48.3,30.07,West,271,0.0,0.0,87,0.00,,---,0.04,VWS V14.01,2013-02-06 04:32:00,
2013-02-05 22:37:00,52.0,48.3,30.07,West,271,0.0,0.0,87,0.00,,---,0.04,VWS V14.01,2013-02-06 04:37:00,
2013-02-05 22:42:00,52.0,48.3,30.07,West,271,0.0,0.0,87,0.00,,---,0.04,VWS V14.01,2013-02-06 04:42:00,
2013-02-05 22:47:00,51.9,48.2,30.07,West,270,0.0,0.0,87,0.00,,---,0.04,VWS V14.01,2013-02-06 04:47:00,
2013-02-05 22:52:00,51.9,48.2,30.07,West,270,0.0,0.0,87,0.00,,---,0.04,VWS V14.01,2013-02-06 04:52:00,
2013-02-05 22:57:00,51.9,48.2,30.07,West,270,0.0,0.0,87,0.00,,---,0.04,VWS V14.01,2013-02-06 04:57:00,
2013-02-05 23:00:00,51.9,48.2,30.07,West,270,0.0,0.0,87,0.00,,---,0.04,VWS V14.01,2013-02-06 05:00:00,
2013-02-05 23:05:00,51.8,48.1,30.07,West,270,0.0,0.0,87,0.00,,---,0.04,VWS V14.01,2013-02-06 05:05:00,
2013-02-05 23:10:00,51.8,48.1,30.08,West,270,0.0,0.0,87,0.00,,---,0.04,VWS V14.01,2013-02-06 05:10:00,
2013-02-05 23:15:00,51.7,48.0,30.08,West,270,0.0,0.0,87,0.00,,---,0.04,VWS V14.01,2013-02-06 05:15:00,
2013-02-05 23:20:00,51.7,48.0,30.08,West,270,0.0,0.0,87,0.00,,---,0.04,VWS V14.01,2013-02-06 05:20:00,
2013-02-05 23:25:00,51.6,47.6,30.07,West,270,0.0,0.0,86,0.00,,---,0.04,VWS V14.01,2013-02-06 05:25:00,
2013-02-05 23:30:00,51.5,47.5,30.07,West,270,0.0,0.0,86,0.00,,---,0.04,VWS V14.01,2013-02-06 05:30:00,
2013-02-05 23:35:00,51.4,47.7,30.07,WNW,284,0.0,0.0,87,0.00,,---,0.04,VWS V14.01,2013-02-06 05:35:00,
2013-02-05 23:40:00,51.4,47.7,30.07,WNW,284,0.0,0.0,87,0.00,,---,0.04,VWS V14.01,2013-02-06 05:40:00,
2013-02-05 23:45:00,51.3,47.6,30.07,WNW,284,0.0,0.0,87,0.00,,---,0.04,VWS V14.01,2013-02-06 05:45:00,
2013-02-05 23:50:00,51.2,47.5,30.07,WNW,284,0.0,0.0,87,0.00,,---,0.04,VWS V14.01,2013-02-06 05:50:00,
2013-02-05 23:55:00,51.2,47.5,30.07,WNW,284,0.0,0.0,87,0.00,,---,0.04,VWS V14.01,2013-02-06 05:55:00,